Tracking 20623 objects as of 5-Apr-2020
HD Live streaming from Space Station
objects crossing your sky now

DELTA 1 DEB

Track DELTA 1 DEB now!
10-day predictions


NORAD ID: 42091
Int'l Code: 1968-114T
Perigee: 1,456.5 km
Apogee: 1,512.6 km
Inclination: 101.5 °
Period: 115.5 minutes
Semi major axis: 7855 km
RCS: Unknown
Launch date: December 15, 1968
Source: United States (US)
Launch site: AIR FORCE WESTERN TEST RANGE (AFWTR)

Note: This is SATELLITE DEBRIS
aabbcc
Your satellite tracking list
Your tracking list is empty




NASA's NSSDC Master Catalog

Two Line Element Set (TLE):
1 42091U 68114T   20094.90843821 -.00000095  00000-0 -35647-3 0  9990
2 42091 101.5384 144.5798 0035656 356.8775 178.1840 12.46918443724851
Source of the keplerian elements: AFSPC